Regional Weather Roundup
Issued by NWS

Home | Current Version | Previous Version | Graphics & Text | Print | Product List | Glossary On
Versions: 1 2 3 4 5 6 7 8 9 10 11 12 13 14 15 16 17 18 19 20 21 22 23 24 25 26 27 28 29 30 31 32 33 34 35 36 37 38 39 40 41 42 43 44 45 46 47 48 49 50
000
ASUS43 KMKX 210600
RWRWI

WISCONSIN REGIONAL WEATHER ROUNDUP
NATIONAL WEATHER SERVICE MILWAUKEE/SULLIVAN WI
100 AM CDT FRI JUL 21 2017

NOTE: "FAIR" INDICATES FEW OR NO CLOUDS BELOW 12,000 FEET WITH NO
SIGNIFICANT WEATHER AND/OR OBSTRUCTIONS TO VISIBILITY.

WIZ001-002-006>008-014>016-023>028-210700-
NORTHWEST WISCONSIN

CITY           SKY/WX    TMP DP  RH WIND       PRES   REMARKS
SUPERIOR ARPT  NOT AVBL
ASHLAND        CLEAR     64  61  90 SW6       29.97S
6HR MIN TEMP:  63; 6HR MAX TEMP:  81;

HAYWARD        PTCLDY    61  59  93 CALM      29.99F
6HR MIN TEMP:  60; 6HR MAX TEMP:  82;

SIREN          PTCLDY    65  63  93 CALM      29.98S
CUMBERLAND     FOG       63  61  94 CALM      30.00R VSB 1/2
RICE LAKE      FOG       64  63  97 CALM      30.01R VSB 1/4
6HR MIN TEMP:  62; 6HR MAX TEMP:  82;

CHETEK         CLEAR     64  64 100 CALM      29.99S FOG
LADYSMITH      CLEAR     64  62  94 CALM      30.01S
EAU CLAIRE     PTCLDY    64  64 100 NE3       29.95F FOG
MENOMONIE      FOG       67  66  99 CALM      29.97F VSB 3/4
NEW RICHMOND     N/A     66  65  97 CALM      29.98R
OSCEOLA        PTCLDY    65  65 100 CALM      30.00R
$$

WIZ003>005-009-010-017-018-210700-
NORTH CENTRAL WISCONSIN

CITY           SKY/WX    TMP DP  RH WIND       PRES   REMARKS
MANITOWISH WTR CLEAR     59  59 100 CALM      30.01S
ARBOR VITAE    CLEAR     62  60  93 CALM      30.01S
WOODRUFF       CLEAR     62  60  93 CALM      30.01S
RHINELANDER    CLEAR     60  60 100 CALM      30.02S
6HR MIN TEMP:  59; 6HR MAX TEMP:  82;

EAGLE RIVER    FOG       59  59 100 CALM      30.01F VSB 3/4
LAND O LAKES   CLEAR     57  57 100 CALM      30.03S
PHILLIPS       PTCLDY    61  61 100 CALM      30.01R
6HR MIN TEMP:  60; 6HR MAX TEMP:  81;

TOMAHAWK         N/A     59  58  97 CALM      30.02S
MEDFORD        CLEAR     62  62  98 CALM      30.01S
MERRILL        CLEAR     61  61 100 CALM      30.01S
6HR MIN TEMP:  60; 6HR MAX TEMP:  82;

$$

WIZ029-030-035-036-043>047-210700-
CENTRAL WISCONSIN

CITY           SKY/WX    TMP DP  RH WIND       PRES   REMARKS
WAUSAU         CLEAR     69  65  86 NW3       29.97F
6HR MIN TEMP:  69; 6HR MAX TEMP:  83;

MOSINEE        CLEAR     68  64  88 NW3       30.00R
MARSHFIELD     CLEAR     67  62  84 N5        29.98F
6HR MIN TEMP:  65; 6HR MAX TEMP:  81;

STEVENS POINT  CLEAR     62  62 100 CALM      29.99S
WAUPACA        CLEAR     67  66  96 CALM      29.98R
WAUTOMA        CLEAR     66  65  96 CALM      30.00R
6HR MIN TEMP:  66; 6HR MAX TEMP:  80;

WISC RAPIDS    FOG       64  64 100 SW3       30.00R VSB 3/4
6HR MIN TEMP:  64; 6HR MAX TEMP:  83;

CAMP DOUGLAS   FOG       63  63 100 CALM      29.98S VSB 1
$$

WIZ011>013-019>022-031-037>040-048>050-210700-
NORTHEAST WISCONSIN

CITY           SKY/WX    TMP DP  RH WIND       PRES   REMARKS
ANTIGO         CLEAR     62  60  93 CALM      30.02R
SHAWANO        CLEAR     68  65  89 CALM      29.97S
6HR MIN TEMP:  66; 6HR MAX TEMP:  87;

OCONTO         CLEAR     64  62  96 CALM      29.95R
STURGEON BAY     N/A     70  66  87 NE5       29.97R
6HR MIN TEMP:  69; 6HR MAX TEMP:  83;

GREEN BAY      CLEAR     68  68 100 NW6       29.96R
6HR MIN TEMP:  67; 6HR MAX TEMP:  85;

MANITOWOC      NOT AVBL
APPLETON       CLEAR     68  61  77 W8        29.96S
CLINTONVILLE   CLEAR     64  64 100 CALM      29.98R
OSHKOSH        CLEAR     69  65  86 CALM      29.96S
6HR MIN TEMP:  68; 6HR MAX TEMP:  81;

$$

WIZ032>034-041-042-053>061-210700-
SOUTHWEST WISCONSIN

CITY           SKY/WX    TMP DP  RH WIND       PRES   REMARKS
LA CROSSE      CLOUDY    74  71  91 S7        29.98R
6HR MIN TEMP:  72; 6HR MAX TEMP:  86;

SPARTA         CLEAR     63  63 100 CALM      30.00R FOG
VIROQUA        CLOUDY    69  69 100 SE6       30.01F
BOSCOBEL       FOG       71  70  96 CALM      30.01R VSB 1/4
6HR MIN TEMP:  69; 6HR MAX TEMP:  84;

PRAIRIE DU CHI FOG       70  68  95 CALM      30.00R VSB 1/2
PLATTEVILLE    CLOUDY    74  74  98 E6        30.02R
$$

WIZ056-057-062-063-064-067-068-210700-
SOUTH CENTRAL WISCONSIN

CITY           SKY/WX    TMP DP  RH WIND       PRES   REMARKS
REEDSBURG      CLEAR     67  67 100 CALM      30.00R
BARABOO/DELLS  FOG       68  66  95 CALM      30.00R VSB 1/2
LONE ROCK      NOT AVBL
MINERAL POINT  CLOUDY    73  72  94 CALM      30.03R
MADISON        CLOUDY    69  67  93 CALM      30.00R
6HR MIN TEMP:  68; 6HR MAX TEMP:  84;

MIDDLETON      CLOUDY    67  67 100 CALM      30.01R
WATERTOWN      CLEAR     68  68 100 CALM      29.99R
MONROE         CLOUDY    75  72  88 CALM      30.01R
JANESVILLE     CLOUDY    72  72 100 NW3       29.99R FOG
$$

WIZ051-052-058>065-066-070>072-210700-
SOUTHEAST WISCONSIN

CITY           SKY/WX    TMP DP  RH WIND       PRES   REMARKS
MILWAUKEE      PTCLDY    75  70  84 CALM      29.97S
6HR MIN TEMP:  74; 6HR MAX TEMP:  79;

WAUKESHA       CLEAR     70  70 100 SW6       30.00S
MILWAUKEE/TIMM CLEAR     72  66  83 CALM      29.98F
RACINE         CLEAR     71  69  93 CALM      29.99S
6HR MIN TEMP:  70; 6HR MAX TEMP:  77;

KENOSHA        CLEAR     68  67  96 W3        29.98S
6HR MIN TEMP:  68; 6HR MAX TEMP:  78;

FOND DU LAC    CLEAR     70  66  87 CALM      29.98R
6HR MIN TEMP:  69; 6HR MAX TEMP:  81; 6HR PCP: TRACE;

SHEBOYGAN      CLEAR     67  67 100 CALM      29.97R FOG
6HR MIN TEMP:  65; 6HR MAX TEMP:  81;

WEST BEND      CLEAR     66  66 100 CALM      29.98S
JUNEAU         CLEAR     69  67  93 CALM      30.00S
$$

LSZ147-162-210700-
LAKE SUPERIOR

STATION/POSITION TIME  TEMP    WIND        PRES    WAVE
                       AIR SEA DIR/SP/G            HT/PER
                 (UTC) (F)     (DEG/KT/KT) (MB)    (FT/S)
W MID LAKE BUOY  0450   60 48  300/  6/  8 1014.0F   1
DEVILS ISLAND    0500   73     250/  5/  6 1013.8F
PORT WING        0500   66     150/  2/  3 1014.6
SAXON HARBOR     0540   66     200/  4/  5 1013.9F
$$

LMZ867-665-643>646-210700-
LAKE MICHIGAN

STATION/POSITION TIME  TEMP    WIND        PRES    WAVE
                       AIR SEA DIR/SP/G            HT/PER
                 (UTC) (F)     (DEG/KT/KT) (MB)    (FT/S)
CHAMBERS ISLAND  0540   72      10/  6/  8 1013.5S
S GREEN BAY BUOY 0500   76 73  350/ 10/ 12 1013.9
N MID LAKE BUOY  0450   67 65   70/  2/  4 1014.7R   1/ 5
NORTHPORT PIER   0540   70      CALM  /  2 1014.2R
KEWAUNEE LAKESHO 0530   73     300/  5/  8 1013.2F
SHEBOYGAN LAKESH 0500   71     200/  5/  5 1013.8F
PORT WASHINGTON  0530   70     250/  2/  3 1015.6S
ATWATER BUOY     0409   69 69  140/  2/  2 1015.0R
MILWAUKEE LAKESH 0530   73     180/  3/  3   N/A
S MID LAKE BUOY  0450   71 71  320/  4/  4 1014.8R   0
KENOSHA   LAKESH 0500   75     230/  6/  8 1014.6
$$

TC  - TEMPERATURE IN CELSIUS
VSB - VISIBILITY IN STATUTE MILES
WCI - WIND CHILL INDEX
HX  - HEAT INDEX





USA.gov is the U.S. government's official web portal to all federal, state and local government web resources and services.